Location: Bernadets
(43.3537°N, 0.3167°E)
Time: 04:15:37
(UTC+00:00)

USA 229 - Pass Details

Date: 24 October 2021
Orbit: 946 x 1266 km, 63.4° (Epoch: 25 November)

Event Time Altitude Azimuth Distance (km) Brightness Sun altitude
Rises 19:13:20 0° 229° (SW) 3,631 7.1 -24.6°
Reaches altitude 10° 19:15:52 10° 233° (SW) 2,711 6.4 -25.1°
Maximum altitude 19:22:07 58° 312° (NW) 1,175 4.1 -26.2°
Enters shadow 19:26:59 19° 26° (NNE) 2,272 5.2 -27.1°
